Location: Asheville, NC
(35.6000°N, 82.5500°W)
Time: 20:47:18
(UTC-04:00)

Oscar 19 - Visible Passes

Search period start: 17 July 2018 00:00
Search period end: 27 July 2018 00:00
Orbit: 773 x 791 km, 98.6° (Epoch: 16 July)

Date Brightness Start Highest point End Pass type
(mag) Time Alt. Az. Time Alt. Az. Time Alt. Az.
17 Jul 12.4 02:20:25 10° NE 02:23:40 23° E 02:23:40 23° E visible
17 Jul 11.5 03:59:16 10° N 04:03:52 34° WNW 04:04:13 33° WNW visible
18 Jul 13.2 01:50:58 10° ENE 01:51:22 11° E 01:51:22 11° E visible
18 Jul 10.7 03:27:02 10° N 03:31:55 69° NW 03:31:55 69° NW visible
19 Jul 11.2 02:55:15 10° NNE 02:59:37 51° ENE 02:59:37 51° ENE visible
19 Jul 12.4 04:36:07 10° NNW 04:39:07 16° WNW 04:40:10 15° WNW visible
20 Jul 12.3 02:24:01 10° NE 02:27:19 25° ENE 02:27:19 25° ENE visible
20 Jul 11.6 04:03:05 10° N 04:07:34 31° WNW 04:07:52 31° WNW visible
21 Jul 13.1 01:54:07 10° ENE 01:55:01 12° ENE 01:55:01 12° ENE visible
21 Jul 10.8 03:30:47 10° N 03:35:33 63° NW 03:35:33 63° NW visible
22 Jul 11.2 02:58:57 10° NNE 03:03:15 53° ENE 03:03:15 53° ENE visible
22 Jul 12.5 04:40:03 10° NNW 04:42:48 15° WNW 04:43:48 14° WNW visible
23 Jul 12.3 02:27:38 10° NE 02:30:56 26° ENE 02:30:56 26° ENE visible
23 Jul 11.7 04:06:54 10° N 04:11:17 29° WNW 04:11:29 29° WNW visible
24 Jul 13.1 01:57:26 10° ENE 01:58:37 12° ENE 01:58:37 12° ENE visible
24 Jul 10.9 03:34:32 10° N 03:39:10 57° NW 03:39:10 57° NW visible
25 Jul 11.2 03:02:39 10° NNE 03:06:52 55° NE 03:06:52 55° NE visible
25 Jul 12.6 04:44:02 10° NW 04:46:29 14° WNW 04:47:25 13° WNW visible
26 Jul 12.2 02:31:16 10° NE 02:34:33 28° ENE 02:34:33 28° ENE visible
26 Jul 11.8 04:10:42 10° NNW 04:14:59 27° WNW 04:15:06 27° WNW visible
